User: anonymous   Login
Location: Brainerd
(46.3580°N, 94.2010°W)
Time: 23:30:38
(UTC-05:00)
Language:

CZ-4C R/B - Orbit

View from above orbital plane
View from above orbital plane
View from above satellite
View from above satellite

Ground track
Ground track

The orbit data is extracted from the following two-line orbital elements,

1 32290U 07055B   16177.83922924  .00001592  00000-0  49647-4 0  9995
2 32290  97.5265 271.6137 0069634 322.0108  37.6232 15.32550146477208
Epoch (UTC): 25 June 2016 20:08:29
Eccentricity: 0.0069634
inclination: 97.5265°
perigee height: 420 km
apogee height: 516 km
right ascension of ascending node: 271.6137°
argument of perigee: 322.0108°
revolutions per day: 15.32550146
mean anomaly at epoch: 37.6232°
orbit number at epoch: 47720

The dashed part of the orbit path shows where the satellite is in the earth's shadow,  

DLR